Location: Karcze
(52.0945°N, 22.4786°E)
Time: 06:39:40
(UTC+00:00)

Transit 2A Rocket - Pass Details

Date: 05 August 2021
Orbit: 586 x 917 km, 66.7° (Epoch: 24 September)

Event Time Altitude Azimuth Distance (km) Brightness Sun altitude
Rises 14:27:57 0° 275° (W) 2,976 9.0 32.7°
Reaches altitude 10° 14:30:43 10° 292° (WNW) 2,122 8.2 32.3°
Maximum altitude 14:34:19 20° 341° (NNW) 1,608 6.9 31.7°
Drops below altitude 10° 14:38:10 10° 29° (NNE) 2,287 7.2 31.2°
Sets 14:41:17 0° 45° (NE) 3,285 7.8 30.7°
